Location: Karcze
(52.0945°N, 22.4786°E)
Time: 22:09:37
(UTC+00:00)

A-11 Canister half - Pass Details

Date: 02 August 2021
Orbit: 1515 x 1685 km, 47.2° (Epoch: 19 September)

Event Time Altitude Azimuth Distance (km) Brightness Sun altitude
Rises 14:26:24 0° 209° (SSW) 4,759 12.1 33.6°
Reaches altitude 10° 14:29:49 10° 200° (SSW) 3,802 11.6 33.1°
Maximum altitude 14:38:07 34° 141° (SE) 2,470 10.1 31.8°
Drops below altitude 10° 14:46:40 10° 82° (E) 3,922 10.7 30.5°
Sets 14:50:14 0° 74° (ENE) 4,927 11.1 30.0°
